Location: Bishausen
(51.6334°N, 9.9631°E)
Time: 17:45:27
(UTC+00:00)

Cosmos 968 Rocket - Pass Details

Date: 23 May 2024
Orbit: 737 x 769 km, 74.0° (Epoch: 23 June)

Event Time Altitude Azimuth Distance (km) Brightness Sun altitude
Exits shadow 02:02:18 11° 209° (SSW) 2,152 5.2 -9.2°
Maximum altitude 02:07:09 78° 296° (WNW) 764 3.5 -8.7°
Drops below altitude 10° 02:12:18 10° 23° (NNE) 2,274 7.4 -8.2°
Sets 02:14:41 0° 25° (NNE) 3,207 8.5 -7.9°
